Torna al catalogo

STARLINK-1327

AttivoComunicazioniVLEO
NORAD 45555·PAYLOAD·🇺🇸 United States

Lanciato Apr 22, 2020 da Cape Canaveral Space Force Station

Loading…

Prossimi Passaggi (prossime 24 ore)

TLE

AggiornatoSource: CelesTrak SupGP

Epoca: Sep 14, 2026, 20:01 UTC

1 45555C 20025AA  26257.83451389  .00162710  00000+0  61227-3 0  2570
2 45555  53.0326 211.4126 0005805  65.5319 157.0365 15.86961944    10

Traccia STARLINK-1327 in tempo reale con AllMySat

Download on the App Store